Location: *
(46.4000°N, 12.6667°E)
Time: 14:06:58
(UTC+00:00)

X-37B - Pass Details

Date: 15 December 2021
Orbit: 334 x 337 km, 45.0° (Epoch: 11 January)

Event Time Altitude Azimuth Distance (km) Brightness Sun altitude
Rises 16:46:07 0° 273° (W) 2,106 5.7 -13.6°
Reaches altitude 10° 16:48:08 10° 269° (W) 1,268 4.4 -13.9°
Maximum altitude 16:50:56 55° 190° (S) 406 0.8 -14.4°
Enters shadow 16:52:16 26° 121° (ESE) 704 1.5 -14.6°
